Rio Vista Municipal (O88)
Rio Vista, CA
Field Elevation: 22
Lat: 38°11.60N  Long: 121°42.22W
CTAF/Unicom Freq: 122.7250
   
     For Weather-by-Phone, call (707) 374-5396
Weather Advisories
2017-04-26   01:58 Z
Altimeter 30.05" Hg
Wind 220° @ 12 KT
Gusts 18 KT
Visibility 10 SM
Ceiling FEW210
Temperature 17° C (63° F)
Dewpoint 11° C (52° F)
Relative Humidity 67%
Density Altitude --
Condensation Altitude 3,100 feet
Wind and Runways
Indicated Runway = 25
Headwind = 10 kt
Crosswind = 6 kt
History
 
 
 
More Info
All DigiWx sites map
NOAA Forecast
 
Airport IQ 5010
(DUC) Stack Farm
(CA37) Dominican
 
about DigiWx
 
FAA Disclaimer: The data displayed is for advisory purposes only and is not to be used for flight planning or operations. For official data, please call (707) 374-5396 to hear the current automated AWOS voice message.
  METAR O88 260158Z AUTO 22012G18KT VIS 10 SM FEW210 17/11 A3005